Regional Weather Roundup
Issued by NWS

Home | Current Version | Previous Version | Graphics & Text | Print | Product List | Glossary On
Versions: 1 2 3 4 5 6 7 8 9 10 11 12 13 14 15 16 17 18 19 20 21 22 23 24 25 26 27 28 29 30 31 32 33 34 35 36 37 38 39 40 41 42 43 44 45 46 47 48 49 50
000
ASUS43 KMKX 240611
RWRWI

WISCONSIN REGIONAL WEATHER ROUNDUP
NATIONAL WEATHER SERVICE MILWAUKEE/SULLIVAN WI
100 AM CDT WED MAY 24 2017

NOTE: "FAIR" INDICATES FEW OR NO CLOUDS BELOW 12,000 FEET WITH NO
SIGNIFICANT WEATHER AND/OR OBSTRUCTIONS TO VISIBILITY.

WIZ001-002-006>008-014>016-023>028-240700-
NORTHWEST WISCONSIN

CITY           SKY/WX    TMP DP  RH WIND       PRES   REMARKS
SUPERIOR ARPT  NOT AVBL
ASHLAND        CLOUDY    46  43  89 NE8       29.86F
6HR MIN TEMP:  44; 6HR MAX TEMP:  47;

HAYWARD        CLOUDY    44  41  89 NE5       29.84S
6HR MIN TEMP:  43; 6HR MAX TEMP:  52;

SIREN          CLOUDY    48  43  83 N5        29.84F
6HR MIN TEMP:  48; 6HR MAX TEMP:  57;

CUMBERLAND     CLEAR     43  41  93 N9        29.81F
RICE LAKE      CLEAR     46  42  87 N12       29.82F
6HR MIN TEMP:  46; 6HR MAX TEMP:  56;

CHETEK         MOCLDY    46  44  92 N9        29.79F
6HR MIN TEMP:  46; 6HR MAX TEMP:  56;

LADYSMITH      CLOUDY    46  44  91 N8        29.80F
6HR MIN TEMP:  46; 6HR MAX TEMP:  54;

EAU CLAIRE     CLOUDY    50  45  83 N8        29.76F
6HR MIN TEMP:  50; 6HR MAX TEMP:  58;

MENOMONIE      CLOUDY    50  45  83 N8        29.79S
6HR MIN TEMP:  50; 6HR MAX TEMP:  58; 6HR PCP:  0.02;

NEW RICHMOND   MOCLDY    46  43  89 N9        29.81F
6HR MIN TEMP:  46; 6HR MAX TEMP:  56;

OSCEOLA        CLEAR     46  46 100 N5        29.85F
6HR MIN TEMP:  46; 6HR MAX TEMP:  58;

$$

WIZ003>005-009-010-017-018-240700-
NORTH CENTRAL WISCONSIN

CITY           SKY/WX    TMP DP  RH WIND       PRES   REMARKS
MANITOWISH WTR CLOUDY    45  45 100 NE3       29.81F
6HR MIN TEMP:  45; 6HR MAX TEMP:  51;

ARBOR VITAE    CLOUDY    47  44  89 N3        29.79F
6HR MIN TEMP:  47; 6HR MAX TEMP:  53;

WOODRUFF       CLOUDY    47  44  89 N3        29.79F
6HR MIN TEMP:  47; 6HR MAX TEMP:  53;

RHINELANDER    CLOUDY    49  44  83 NE6       29.79F
6HR MIN TEMP:  49; 6HR MAX TEMP:  57;

EAGLE RIVER    CLOUDY    45  42  90 NE6       29.79F
6HR MIN TEMP:  45; 6HR MAX TEMP:  53;

LAND O LAKES   CLOUDY    45  42  89 NE5       29.82F
6HR MIN TEMP:  45; 6HR MAX TEMP:  52;

PHILLIPS       CLOUDY    47  45  92 NE12      29.79F
6HR MIN TEMP:  47; 6HR MAX TEMP:  51;

TOMAHAWK       CLOUDY    48  43  82 NE5       29.79S
6HR MIN TEMP:  48; 6HR MAX TEMP:  55;

MEDFORD        DRIZZLE   47  45  92 NE5       29.76F
6HR MIN TEMP:  47; 6HR MAX TEMP:  54;

MERRILL        RAIN      49  49 100 N3        29.78F
6HR MIN TEMP:  49; 6HR MAX TEMP:  56; 6HR PCP:  0.04;

$$

WIZ029-030-035-036-043>047-240700-
CENTRAL WISCONSIN

CITY           SKY/WX    TMP DP  RH WIND       PRES   REMARKS
WAUSAU         CLOUDY    50  48  93 VRB6      29.74F
6HR MIN TEMP:  50; 6HR MAX TEMP:  56; 6HR PCP:  0.09;

MOSINEE        RAIN      48  48 100 NE8       29.75F
MARSHFIELD     CLOUDY    50  47  89 N6        29.73F
6HR MIN TEMP:  49; 6HR MAX TEMP:  56; 6HR PCP:  0.01;

STEVENS POINT  DRIZZLE   47  47 100 NE8       29.74F
6HR MIN TEMP:  47; 6HR MAX TEMP:  52;

WAUPACA        CLOUDY    52  51  95 N5        29.73F
6HR MIN TEMP:  51; 6HR MAX TEMP:  52;

WAUTOMA        CLOUDY    49  48  97 NE3       29.73F
6HR MIN TEMP:  48; 6HR MAX TEMP:  51; 6HR PCP:  0.15;

WISC RAPIDS    CLOUDY    50  48  93 N6        29.74F
6HR MIN TEMP:  50; 6HR MAX TEMP:  54; 6HR PCP:  0.05;

CAMP DOUGLAS   CLOUDY    49  48  95 NE5       29.73S
6HR MIN TEMP:  49; 6HR MAX TEMP:  52; 6HR PCP:  0.18;

$$

WIZ011>013-019>022-031-037>040-048>050-240700-
NORTHEAST WISCONSIN

CITY           SKY/WX    TMP DP  RH WIND       PRES   REMARKS
ANTIGO         CLOUDY    47  45  92 NE10      29.76F
6HR MIN TEMP:  47; 6HR MAX TEMP:  52; 6HR PCP:  0.01;

SHAWANO        DRIZZLE   51  48  89 NE10      29.74F
6HR MIN TEMP:  51; 6HR MAX TEMP:  54; 6HR PCP:  0.15;

OCONTO         CLOUDY    48  46  95 NE7       29.74F
6HR MIN TEMP:  48; 6HR MAX TEMP:  51; 6HR PCP:  0.14;

STURGEON BAY   LGT RAIN  48  47  96 N7        29.73F FOG
6HR MIN TEMP:  48; 6HR MAX TEMP:  51;

GREEN BAY      LGT RAIN  50  50 100 NE15      29.72F FOG
6HR MIN TEMP:  50; 6HR MAX TEMP:  52; 6HR PCP:  0.16;

MANITOWOC      LGT RAIN  48  47  96 NE9       29.72S FOG
6HR MIN TEMP:  48; 6HR MAX TEMP:  50; 6HR PCP:  0.17;

APPLETON       CLOUDY    50  48  93 NE12      29.70F
CLINTONVILLE   DRIZZLE   48  46  93 N8G16     29.73F
OSHKOSH        LGT RAIN  51  48  89 NE10G20   29.70F
6HR MIN TEMP:  50; 6HR MAX TEMP:  51; 6HR PCP:  0.27;

$$

WIZ032>034-041-042-053>061-240700-
SOUTHWEST WISCONSIN

CITY           SKY/WX    TMP DP  RH WIND       PRES   REMARKS
LA CROSSE      CLOUDY    52  48  86 N7        29.73F
6HR MIN TEMP:  52; 6HR MAX TEMP:  56; 6HR PCP:  0.09;

SPARTA         CLOUDY    48  47  97 CALM      29.74F
6HR MIN TEMP:  48; 6HR MAX TEMP:  52; 6HR PCP:  0.18;

VIROQUA        CLOUDY    49  47  96 MISG      29.71F
6HR MIN TEMP:  49; 6HR MAX TEMP:  55;

BOSCOBEL       CLOUDY    54  51  90 NE5       29.70S
6HR MIN TEMP:  53; 6HR MAX TEMP:  61; 6HR PCP:  0.32;

PRAIRIE DU CHI CLOUDY    53  48  83 N3        29.69F
6HR MIN TEMP:  53; 6HR MAX TEMP:  58;

PLATTEVILLE    CLOUDY    52  52 100 NE8       29.67F
6HR MIN TEMP:  52; 6HR MAX TEMP:  57;

$$

WIZ056-057-062-063-064-067-068-240700-
SOUTH CENTRAL WISCONSIN

CITY           SKY/WX    TMP DP  RH WIND       PRES   REMARKS
REEDSBURG      CLOUDY    49  49 100 NE8       29.72S
6HR MIN TEMP:  49; 6HR MAX TEMP:  53; 6HR PCP:  0.31;

BARABOO/DELLS  CLOUDY    48  47  94 NE9       29.72S FOG
6HR MIN TEMP:  48; 6HR MAX TEMP:  54; 6HR PCP:  0.06;

LONE ROCK      CLOUDY    52  49  89 NE9       29.70S
6HR MIN TEMP:  52; 6HR MAX TEMP:  59;

MINERAL POINT  CLOUDY    54  54 100 NE9       29.68S
MADISON        CLOUDY    51  49  92 NE7       29.69F
6HR MIN TEMP:  51; 6HR MAX TEMP:  57; 6HR PCP: TRACE;

MIDDLETON      CLOUDY    52  52 100 NE10      29.70S
6HR MIN TEMP:  52; 6HR MAX TEMP:  59; 6HR PCP:  0.05;

WATERTOWN      CLOUDY    49  49 100 N6        29.69S FOG
6HR MIN TEMP:  49; 6HR MAX TEMP:  54; 6HR PCP:  0.02;

MONROE         MOCLDY    50  50 100 NE5       29.66F FOG
JANESVILLE     CLOUDY    54  54 100 NE5       29.67F FOG
$$

WIZ051-052-058>065-066-070>072-240700-
SOUTHEAST WISCONSIN

CITY           SKY/WX    TMP DP  RH WIND       PRES   REMARKS
MILWAUKEE      LGT RAIN  48  47  96 N7        29.69F VSB 1/4
6HR MIN TEMP:  47; 6HR MAX TEMP:  57; 6HR PCP:  0.15;

WAUKESHA       FOG       46  46 100 E5        29.70F VSB 1/4
MILWAUKEE/TIMM FOG       46  45  93 N6        29.70F VSB 1/2
RACINE         LGT RAIN  47  46  97 N7        29.70F VSB 1/2
6HR MIN TEMP:  47; 6HR MAX TEMP:  55; 6HR PCP:  0.09;

KENOSHA        LGT RAIN  50  49  96 N5        29.68F FOG
6HR MIN TEMP:  50; 6HR MAX TEMP:  57; 6HR PCP:  0.12;

FOND DU LAC    CLOUDY    51  46  83 NE9       29.70F
6HR MIN TEMP:  50; 6HR MAX TEMP:  51; 6HR PCP:  0.16;

SHEBOYGAN      CLOUDY    47  47 100 NE13      29.70F
6HR MIN TEMP:  47; 6HR MAX TEMP:  49; 6HR PCP:  0.05;

WEST BEND      CLOUDY    46  46 100 NE7       29.70F FOG
JUNEAU         CLOUDY    48  47  95 N5        29.71F
6HR MIN TEMP:  48; 6HR MAX TEMP:  53; 6HR PCP:  0.05;

$$

LSZ147-162-240700-
LAKE SUPERIOR

STATION/POSITION TIME  TEMP    WIND        PRES    WAVE
                       AIR SEA DIR/SP/G            HT/PER
                 (UTC) (F)     (DEG/KT/KT) (MB)    (FT/S)
W MID LAKE BUOY  0450   40 37  340/  6/  6 1012.2F   0
DEVILS ISLAND    0600   44      10/  9/  9 1011.8F
SAXON HARBOR     0540   42     350/  4/  4 1011.2F
$$

LMZ867-665-643>646-240700-
LAKE MICHIGAN

STATION/POSITION TIME  TEMP    WIND        PRES    WAVE
                       AIR SEA DIR/SP/G            HT/PER
                 (UTC) (F)     (DEG/KT/KT) (MB)    (FT/S)
CHAMBERS ISLAND  0540   47     360/ 15/ 19 1007.1F
N MID LAKE BUOY  0550   42 39   30/  8/ 10 1008.3F   1
NOR



USA.gov is the U.S. government's official web portal to all federal, state and local government web resources and services.